Location: Cudham
(51.3000°N, 0.0667°E)
Time: 00:55:52
(UTC+00:00)

BREEZE-M DEB - Pass Details

Date: 15 May 2026
Orbit: 815 x 34901 km, 45.0° (Epoch: 9 June)

Event Time Altitude Azimuth Distance (km) Brightness Sun altitude
Rises 22:30:17 0° 242° (WSW) 3,334 6.7 -17.2°
Reaches altitude 10° 22:32:12 10° 235° (SW) 2,438 6.0 -17.3°
Maximum altitude 22:36:37 48° 160° (SSE) 1,442 4.4 -17.5°
Drops below altitude 10° 22:47:35 10° 89° (E) 5,889 7.9 -18.1°
Sets 22:56:22 0° 86° (E) 9,493 9.0 -18.4°
